www.pogodaiklimat.ru

Погода и климат >> Архив погоды >> Канада >> Timmins


ПОГОДА в Timmins

  • Прогноз погоды в Timmins
  • Монитор погоды в Timmins
  • Климат города

АРХИВ ПОГОДЫ в Timmins

Время (UTC), дата Ветер
(напр.,м/с)
 
Видим.   Явления Облачность Т
(С)
Тd
(С)
f
(%)
Тe
(С)
Тes
(С)
Комфортность P
(гПа)
Po
(гПа)
Тmin
(С)
Tmax
(С)
R
(мм)
R24
(мм)
S
(см)
00 11.11 З 3 24 км слабый снег 9/9 600 м
[Sc]
-11.8 -14.0 84 -17 -17 1036.9 998.3 -20.1 -9.2
03 11.11 ЮЗ 2 24 км ясно -17.8 -19.7 85 -22 -22 1037.2 998.5
06 11.11 Ю 2 24 км {снег} ясно -19.1 -21.1 84 -24 -24 1035.9 997.4 -20.1 -9.2 17
09 11.11 Ю 2 24 км 6/0
[]
-16.7 -18.7 84 -21 -21 1035.1 996.8
12 11.11 Ю 4 24 км 8/0
[Ac As Ci fib]
-14.1 -16.0 85 -22 -22 1033.9 995.6 -19.3 -9.2
15 11.11 Ю 5 24 км 10/10 600 м
[]
-9.7 -11.5 87 -17 -17 1032.3 994.0
18 11.11 Ю 6 4800 м слабый снег 10/10 600 м
[Sc]
-5.5 -8.2 81 -13 -13 1029.2 991.2 -19.3 -5.5
21 11.11 Ю 5 1600 м 5/5 300 м
[]
-5.1 -7.0 86 -12 -12 1026.7 988.9
00 12.11 3200 м слабый снег н/о -4.8 -6.0 91 -11 -11 1026.0 988.3 -18.9 -4.6
03 12.11 Ю 4 6000 м 10/10 300 м
[]
-3.8 -5.2 90 -10 -10 1024.9 987.5
06 12.11 Ю 3 9000 м слабый снег 10/10 300 м
[Sc]
-4.0 -5.1 92 -9 -9 1024.3 987.1 -18.9 -3.7 21
09 12.11 Ю 2 24 км 9/9 600 м
[]
-4.8 -5.6 94 -8 -8 1024.8 987.6
12 12.11 Ю 2 24 км в посл. час снег 10/10 300 м
[Sc]
-4.4 -5.3 93 -8 -8 1025.9 988.7 -5.0 -3.7
15 12.11 С 1 24 км 10/10 200 м
[]
-2.3 -3.9 89 -3 -3 1027.0 989.8
18 12.11 Ю 2 24 км 10/10 300 м
[Sc]
-0.6 -3.1 83 -4 -4 1026.6 989.5 -6.0 -0.6
21 12.11 Ю 2 24 км 10/10 300 м
[]
-0.3 -2.4 86 -3 -3 1026.6 989.5
00 13.11 Ю 2 24 км слабый снег 10/10 600 м
[Sc]
-1.0 -2.2 92 -4 -4 1027.2 990.1 -5.0 -0.2
03 13.11 Ю 2 24 км 10/10 600 м
[]
-1.2 -2.6 90 -5 -5 1027.1 990.0
06 13.11 Ю 2 24 км {снег} 10/10 600 м
[Sc]
-1.3 -2.2 94 -5 -5 1026.7 989.7 -5.0 -0.2 20
09 13.11 СЗ 3 24 км 10/10 100 м
[]
-1.6 -2.3 95 -6 -6 1027.1 990.1
12 13.11 СЗ 3 9000 м слабая переохл. морось (гололёд) 10/10 200 м
[Sc]
-2.4 -3.4 93 -7 -7 1028.5 991.4 -2.4 -0.2
15 13.11 СЗ 3 16 км 10/10 200 м
[]
-3.1 -5.0 87 -8 -8 1030.2 993.0
18 13.11 С 3 24 км {ливн. осадки, морось} 10/10 300 м
[Sc]
-3.0 -5.4 83 -8 -8 1030.5 993.3 -3.4 -0.9
21 13.11 С 2 24 км 10/10 300 м
[]
-3.6 -6.1 83 -7 -7 1030.5 993.3
00 14.11 В 2 24 км слабый снег 10/10 300 м
[Sc]
-4.5 -6.5 86 -8 -8 1030.6 993.3 -4.6 -2.1
03 14.11 ЮВ 2 24 км 10/10 300 м
[]
-4.7 -6.5 87 -8 -8 1030.0 992.7
06 14.11 ЮВ 2 24 км {снег} 10/10 300 м
[Sc]
-4.8 -6.5 88 -8 -8 1029.3 992.0 -4.8 -0.9 13
09 14.11 ЮВ 2 24 км 10/10 600 м
[]
-4.5 -5.7 91 -8 -8 1027.9 990.6
12 14.11 Ю 3 24 км 10/10 1000 м
[Sc]
-3.2 -4.2 93 -8 -8 1026.7 989.5 -4.8 -0.9
15 14.11 Ю 4 24 км 9/9 1000 м
[]
-0.6 -2.9 84 -6 -6 1025.5 988.4
18 14.11 Ю 6 24 км 8/5 1000 м
[Sc Ci fib]
+3.3 -2.5 66 -2 -1 1023.4 986.6 -4.8 +3.4
21 14.11 Ю 5 24 км 10/10 300 м
[]
+1.7 -0.7 84 -4 -4 1021.1 984.3
00 15.11 Ю 5 24 км 10/10 600 м
[Sc]
+1.6 -0.1 88 -4 -4 1019.8 983.1 -4.8 +3.4
03 15.11 Ю 5 19 км 10/10 300 м
[]
+1.7 +0.4 91 -4 -4 1018.5 981.9
06 15.11 Ю 4 24 км слабый дождь со снегом 10/10 300 м
[Sc]
+1.8 +1.0 94 -3 -3 1017.2 980.8 -4.8 +3.4 18
09 15.11 Ю 4 24 км 10/10 300 м
[]
+2.2 +1.5 95 -3 -3 1015.9 979.5
12 15.11 Ю 4 4800 м слабый дождь {снег} 10/10 100 м
[Sc]
+2.1 +1.6 96 -3 -3 1014.3 978.0 +1.4 +3.4
15 15.11 Ю 4 2400 м 10/10 100 м
[]
+2.6 +2.1 97 -2 -2 1012.7 976.5
18 15.11 Ю 4 4000 м слабый дождь {снег} 10/10 100 м
[Frnb]
+1.6 +1.0 96 -4 -4 1009.9 973.7 +1.4 +2.8
21 15.11 ЮВ 4 6000 м 10/10 50 м
[]
+0.9 +0.3 96 -4 -4 1007.1 971.0
00 16.11 2400 м слабый снег н/о +0.2 -0.3 96 -5 -5 1005.1 969.1 +0.2 +2.8
03 16.11 ЮВ 3 1600 м 5/5 100 м
[]
+0.2 -0.3 96 -5 -5 1003.1 967.2
06 16.11 1600 м слабый снег н/о 0.0 -0.3 98 -5 -5 1002.3 966.3 0.0 +2.8 18
09 16.11 С 5 2400 м 8/8 100 м
[]
+0.1 -0.4 96 -6 -6 1003.6 967.6
12 16.11 1600 м слабый снег н/о -3.2 -4.8 89 -12 -12 1008.7 972.3 -3.2 +2.8
15 16.11 СЗ 9 3200 м 10/10 300 м
[]
-5.1 -7.0 86 -14 -14 1013.6 977.0
18 16.11 СЗ 8 3200 м слабый снег 10/10 300 м
[Sc]
-5.7 -7.4 88 -15 -15 1017.2 980.4 -5.7 +0.1
21 16.11 СЗ 6 4000 м 10/10 300 м
[]
-6.5 -8.4 86 -15 -15 1020.6 983.7
00 17.11 СЗ 5 9000 м слабый снег 10/10 300 м
[Frnb]
-7.3 -9.0 88 -15 -15 1024.3 987.1 -7.3 -3.2
03 17.11 СЗ 5 19 км 10/10 300 м
[]
-8.7 -10.4 87 -16 -16 1025.8 988.4
06 17.11 С 3 24 км слабый снег 10/10 200 м
[Sc]
-10.1 -11.7 88 -16 -16 1026.5 989.0 -10.1 +0.1 121
09 17.11 ЮВ 1 24 км 10/10 100 м
[]
-11.2 -12.2 92 -14 -14 1026.6 989.0
12 17.11 ЮВ 3 16 км слабый снег 10/10 100 м
[Frnb]
-11.7 -12.7 92 -17 -17 1026.0 988.3 -12.0 +0.1
15 17.11 ЮВ 4 24 км 8/8 100 м
[]
-10.0 -11.5 89 -17 -16 1024.5 986.9
18 17.11 ЮВ 6 24 км {снег} 10/4 100 м
[Frnb Ac cuf]
-6.7 -10.0 77 -14 -14 1019.6 982.3 -12.0 -6.2

 

Местоположение метеостанции Timmins (Канада): широта 48.57 долгота -81.36 высота над уровнем моря 295 м.

В архиве по умолчанию представлена погода в Timmins за последнюю неделю. Архивные данные за месяц целиком и за предыдущие месяцы, начиная с января 2011 года, Вы можете получить, выбрав интересующий диапазон дат из раскрывающегося списка и нажав кнопку "Ввод!".

Внимание! Время в таблицах - всемирное. Для получения местного времени необходимо прибавить поправку, которая в Timmins равна -5 ч.

Смотрите также архив погоды в соседних городах и на ближайших метеорологических станциях:

Погода в Timmins Climate (Канада) (3 км)
Погода в Kirkland Lake (Канада) (111 км)
Погода в Kapuskasing (Канада) (122 км)
Погода в Kapuskasing (Канада) (122 км)
Погода в Kapuskasing Airport (Канада) (124 км)
Погода в Earlton (Канада) (148 км)
Погода в Earlton Climate (Канада) (151 км)
Погода в Chapleau A (Канада) (169 км)
Погода в Rouyn (Канада) (176 км)
Погода в Barrage Angliers (Канада) (195 км)

Пояснения к столбцам:

Ветер - указаны скорость ветра в м/с - средняя за 10 мин, порывы в срок и между сроками (в фигурных скобках) и направление, откуда дует ветер: С - северный, СВ - северо-восточный, В - восточный, ЮВ - юго-восточный, Ю - южный, ЮЗ - юго-западный, З - западный, СЗ - северо-западный.
Видимость - горизонтальная дальность видимости в метрах или километрах. При видимости от 1 до 10 км при отсутствии осадков обычно наблюдается дымка, при ухудшении видимости до 1 км и менее - туман. В сухую погоду видимость может ухудшаться дымом, пылью или мглою.
Явления - указаны атмосферные явления, наблюдавшиеся в срок или в последний час перед сроком; фигурными скобками обозначены явления, наблюдавшиеся между сроками (за 1-3 часа до срока); квадратными скобками обозначены град или гололедные отложения с указанием их диаметра в мм.
Облачность - указаны через наклонную черту общая и нижняя облачность в баллах и высота нижней границы облаков в метрах; квадратными скобками обозначены формы облаков: Ci - перистые, Cs - перисто-слоистые, Cc - перисто-кучевые, Ac - высококучевые, As - высокослоистые, Sc - слоисто-кучевые, Ns - слоисто-дождевые, Cu - кучевые, Cb - кучево-дождевые. Подробнее классификацию облаков см. в Атласе облаков (PDF).
T - Температура воздуха - температура, измеренная на высоте 2 м над землей.
Td - Температура точки росы - температура, при понижении до которой содержащийся в воздухе водяной пар достигнет насыщения.
f - Относительная влажность воздуха - влажноcть воздуха, измеренная на высоте 2 м над землей.
Te - Эффективная температура - температура, которую ощущает одетый по сезону человек в тени. Характеристика душности погоды. При расчете учитывается влияние влажности воздуха и скорости ветра на теплоощущения человека.
Tes - Эффективная температура на солнце - температура, которую ощущает человек, с поправкой на солнечный нагрев. Характеристика знойности погоды. Зависит от высоты солнца над горизонтом, облачности и скорости ветра. Ночью, в пасмурную погоду, а также при ветре 12 м/с и более поправка равна нулю.
P - Атмосферное давление - приведенное к уровню моря атмосферное давление.
Po - Атмосферное давление - измеренное на уровне метеостанции атмосферное давление.
Tmin - Минимальная температура - минимум температуры воздуха на высоте 2 м над землей.
Tmax - Максимальная температура - максимум температуры воздуха на высоте 2 м над землей.
R - Количество осадков - Количество выпавших осадков за период времени, мм. При наведении курсора мыши на число - период времени, за который выпало указанное количество осадков.
R24 - Количество осадков - Количество выпавших осадков за 24 часа, мм.
S - Снежный покров - Высота снежного покрова, см. При наведении курсора мыши на число - состояние снежного покрова и степень покрытия местности в баллах.